When you browse on this site, cookies collect data to enhance your experience and personalize the content and advertising you see.
Visit our Privacy Policy to learn more. By continuing to use the site, you agree to this use of cookies and data.
  • In United Kingdom
  • List of Countries
  • For 7 days
  • Water Temperature
  • Weather Map
  • Weather Widgets
  • user-avatar
    Login

    Hourly Weather Balmazujvaros

    Today, 23 January, Thursday

    Time Temperature Precipitation Wind Pressure Humidity
    00:00 -3°C° 0 mm 2 mps 764 mmHg 85%
    01:00 -3°C° 0 mm 2 mps 765 mmHg 87%
    02:00 -3°C° 0 mm 2 mps 765 mmHg 85%
    03:00 -3°C° 0 mm 2 mps 765 mmHg 84%
    04:00 -3°C° 0 mm 2 mps 765 mmHg 82%
    05:00 -3°C° 0 mm 2 mps 766 mmHg 81%
    06:00 -3°C° 0 mm 2 mps 766 mmHg 80%
    07:00 -3°C° 0 mm 2 mps 767 mmHg 78%
    08:00 -1°C° 0 mm 2 mps 767 mmHg 73%
    09:00 +2°C° 0 mm 1 mps 767 mmHg 68%
    10:00 +3°C° 0 mm 1 mps 768 mmHg 63%
    11:00 +4°C° 0 mm 1 mps 768 mmHg 61%
    12:00 +4°C° 0 mm 2 mps 768 mmHg 59%
    13:00 +4°C° 0 mm 2 mps 768 mmHg 57%
    14:00 +3°C° 0 mm 2 mps 767 mmHg 62%
    15:00 +2°C° 0 mm 2 mps 767 mmHg 67%
    16:00 +1°C° 0 mm 2 mps 767 mmHg 72%
    17:00 +1°C° 0 mm 2 mps 767 mmHg 75%
    18:00 -1°C° 0 mm 2 mps 767 mmHg 77%
    19:00 -1°C° 0 mm 2 mps 767 mmHg 80%
    20:00 -2°C° 0 mm 2 mps 767 mmHg 81%
    21:00 -2°C° 0 mm 2 mps 767 mmHg 81%
    22:00 -2°C° 0 mm 3 mps 767 mmHg 82%
    23:00 -2°C° 0 mm 2 mps 767 mmHg 82%

    Tomorrow, 24 January, Friday

    Time Temperature Precipitation Wind Pressure Humidity
    00:00 -2°C° 0 mm 2 mps 766 mmHg 83%
    01:00 -2°C° 0 mm 2 mps 766 mmHg 83%
    02:00 -3°C° 0 mm 2 mps 766 mmHg 83%
    03:00 -1°C° 0 mm 1 mps 765 mmHg 83%
    04:00 -1°C° 0 mm 1 mps 765 mmHg 83%
    05:00 -1°C° 0 mm 1 mps 765 mmHg 82%
    06:00 -1°C° 0 mm 1 mps 765 mmHg 82%
    07:00 -1°C° 0 mm 1 mps 765 mmHg 81%
    08:00 0°C° 0 mm 1 mps 765 mmHg 76%
    09:00 +1°C° 0 mm 0 mps 765 mmHg 70%
    10:00 +2°C° 0 mm 0 mps 765 mmHg 65%
    11:00 +2°C° 0 mm 0 mps 764 mmHg 61%
    12:00 +4°C° 0 mm 1 mps 764 mmHg 58%
    13:00 +5°C° 0 mm 1 mps 763 mmHg 55%
    14:00 +4°C° 0 mm 1 mps 763 mmHg 59%
    15:00 +3°C° 0 mm 1 mps 762 mmHg 63%
    16:00 +2°C° 0 mm 1 mps 762 mmHg 67%
    17:00 +1°C° 0 mm 1 mps 762 mmHg 69%
    18:00 +1°C° 0 mm 1 mps 762 mmHg 71%
    19:00 0°C° 0 mm 1 mps 761 mmHg 73%
    20:00 0°C° 0 mm 1 mps 761 mmHg 74%
    21:00 0°C° 0 mm 1 mps 761 mmHg 75%
    22:00 0°C° 0 mm 1 mps 761 mmHg 75%
    23:00 -2°C° 0 mm 2 mps 761 mmHg 76%

    Day after tomorrow, 25 January, Saturday

    Time Temperature Precipitation Wind Pressure Humidity
    00:00 -2°C° 0 mm 2 mps 761 mmHg 76%
    01:00 -3°C° 0 mm 2 mps 761 mmHg 77%
    02:00 -3°C° 0 mm 2 mps 760 mmHg 77%
    03:00 -1°C° 0 mm 1 mps 760 mmHg 77%
    04:00 -1°C° 0 mm 1 mps 760 mmHg 77%
    05:00 -1°C° 0 mm 1 mps 760 mmHg 77%
    06:00 -1°C° 0 mm 1 mps 760 mmHg 77%
    07:00 -1°C° 0 mm 1 mps 760 mmHg 77%
    08:00 0°C° 0 mm 1 mps 760 mmHg 73%
    09:00 +1°C° 0 mm 1 mps 760 mmHg 68%
    10:00 +2°C° 0 mm 1 mps 761 mmHg 63%
    11:00 +3°C° 0 mm 1 mps 760 mmHg 63%
    12:00 +3°C° 0 mm 2 mps 760 mmHg 62%
    13:00 +3°C° 0 mm 2 mps 760 mmHg 61%
    14:00 +4°C° 0 mm 1 mps 759 mmHg 65%
    15:00 +3°C° 0 mm 1 mps 759 mmHg 69%
    16:00 +3°C° 0 mm 1 mps 759 mmHg 72%
    17:00 +2°C° 0 mm 1 mps 759 mmHg 74%
    18:00 +2°C° 0 mm 1 mps 759 mmHg 75%
    19:00 +2°C° 0 mm 1 mps 759 mmHg 76%
    20:00 +2°C° 0 mm 1 mps 759 mmHg 76%
    21:00 +2°C° 0 mm 1 mps 759 mmHg 75%
    22:00 +2°C° 0 mm 1 mps 759 mmHg 75%
    23:00 +2°C° 0 mm 1 mps 759 mmHg 76%

    26 January, Sunday

    Time Temperature Precipitation Wind Pressure Humidity
    00:00 +2°C° 0 mm 1 mps 759 mmHg 77%
    01:00 +1°C° 0 mm 2 mps 759 mmHg 79%
    02:00 +1°C° 0.1 mm 2 mps 759 mmHg 81%
    03:00 +1°C° 0.1 mm 2 mps 758 mmHg 84%
    04:00 +1°C° 0.1 mm 2 mps 758 mmHg 87%
    05:00 +1°C° 0.1 mm 2 mps 758 mmHg 88%
    06:00 +2°C° 0.1 mm 1 mps 759 mmHg 90%
    07:00 +2°C° 0.1 mm 1 mps 759 mmHg 91%
    08:00 +2°C° 0.2 mm 1 mps 759 mmHg 91%
    09:00 +3°C° 0.2 mm 1 mps 759 mmHg 92%
    10:00 +3°C° 0.2 mm 1 mps 759 mmHg 92%
    11:00 +4°C° 0.1 mm 1 mps 759 mmHg 90%
    12:00 +4°C° 0.1 mm 1 mps 759 mmHg 88%
    13:00 +5°C° 0.1 mm 1 mps 759 mmHg 87%
    14:00 +5°C° 0 mm 1 mps 759 mmHg 89%
    15:00 +4°C° 0 mm 1 mps 758 mmHg 91%
    16:00 +4°C° 0 mm 1 mps 758 mmHg 93%
    17:00 +4°C° 0 mm 1 mps 758 mmHg 94%
    18:00 +4°C° 0 mm 1 mps 758 mmHg 94%
    19:00 +4°C° 0 mm 1 mps 758 mmHg 95%
    20:00 +4°C° 0 mm 1 mps 758 mmHg 95%
    21:00 +4°C° 0 mm 1 mps 758 mmHg 95%
    22:00 +4°C° 0 mm 1 mps 758 mmHg 95%
    23:00 +4°C° 0.1 mm 1 mps 758 mmHg 95%

    27 January, Monday

    Time Temperature Precipitation Wind Pressure Humidity
    00:00 +4°C° 0.1 mm 1 mps 758 mmHg 95%
    01:00 +4°C° 0.1 mm 1 mps 758 mmHg 95%
    02:00 +4°C° 0.1 mm 1 mps 758 mmHg 95%
    03:00 +4°C° 0.1 mm 1 mps 758 mmHg 95%
    04:00 +4°C° 0.1 mm 1 mps 758 mmHg 95%
    05:00 +3°C° 0.2 mm 0 mps 757 mmHg 96%
    06:00 +3°C° 0.2 mm 0 mps 757 mmHg 96%
    07:00 +3°C° 0.2 mm 0 mps 757 mmHg 96%
    08:00 +3°C° 0.2 mm 0 mps 758 mmHg 95%
    09:00 +4°C° 0.2 mm 1 mps 758 mmHg 94%
    10:00 +4°C° 0.2 mm 1 mps 758 mmHg 93%
    11:00 +5°C° 0.1 mm 1 mps 758 mmHg 93%
    12:00 +5°C° 0.1 mm 1 mps 757 mmHg 93%
    13:00 +5°C° 0.1 mm 1 mps 757 mmHg 93%
    14:00 +5°C° 0 mm 1 mps 757 mmHg 93%
    15:00 +5°C° 0 mm 1 mps 757 mmHg 94%
    16:00 +5°C° 0 mm 1 mps 757 mmHg 94%
    17:00 +3°C° 0 mm 2 mps 757 mmHg 94%
    18:00 +3°C° 0 mm 2 mps 757 mmHg 95%
    19:00 +3°C° 0 mm 2 mps 757 mmHg 95%
    20:00 +2°C° 0 mm 2 mps 757 mmHg 95%
    21:00 +2°C° 0 mm 2 mps 757 mmHg 95%
    22:00 +1°C° 0 mm 3 mps 757 mmHg 95%
    23:00 +1°C° 0 mm 3 mps 757 mmHg 96%

    28 January, Tuesday

    Time Temperature Precipitation Wind Pressure Humidity
    00:00 +1°C° 0 mm 3 mps 757 mmHg 96%
    01:00 +1°C° 0 mm 3 mps 756 mmHg 96%
    02:00 +1°C° 0 mm 3 mps 756 mmHg 96%
    03:00 +1°C° 0 mm 3 mps 756 mmHg 96%
    04:00 0°C° 0 mm 3 mps 756 mmHg 96%
    05:00 +1°C° 0 mm 3 mps 755 mmHg 96%
    06:00 +1°C° 0 mm 3 mps 755 mmHg 95%
    07:00 +1°C° 0 mm 3 mps 755 mmHg 95%
    08:00 +1°C° 0 mm 4 mps 755 mmHg 92%
    09:00 +2°C° 0 mm 5 mps 755 mmHg 90%
    10:00 +3°C° 0 mm 6 mps 754 mmHg 87%
    11:00 +4°C° 0 mm 6 mps 754 mmHg 83%
    12:00 +5°C° 0 mm 7 mps 753 mmHg 80%
    13:00 +6°C° 0 mm 7 mps 752 mmHg 76%
    14:00 +7°C° 0 mm 6 mps 752 mmHg 76%
    15:00 +7°C° 0 mm 6 mps 752 mmHg 75%
    16:00 +7°C° 0 mm 5 mps 752 mmHg 75%
    17:00 +7°C° 0 mm 6 mps 752 mmHg 75%
    18:00 +5°C° 0 mm 6 mps 752 mmHg 75%
    19:00 +5°C° 0 mm 7 mps 752 mmHg 75%
    20:00 +5°C° 0 mm 6 mps 752 mmHg 77%
    21:00 +5°C° 0 mm 6 mps 752 mmHg 79%
    22:00 +6°C° 0 mm 5 mps 752 mmHg 81%
    23:00 +6°C° 0 mm 5 mps 752 mmHg 84%
    Show more